Weather History for Bishop, CA

Change the Weather History Date:

Monday, June 10, 2013

  Actual Average Record
Temperature  
Mean Temperature 72 °F 70 °F  
Max Temperature 89 °F 90 °F 102 °F (1949)
Min Temperature 55 °F 50 °F 32 °F (1954)
Degree Days  
Heating Degree Days 0 1  
Month to date heating degree days 0 13  
Since 1 June heating degree days 0 13  
Since 1 July heating degree days 3851 4171  
Cooling Degree Days 7 6  
Month to date cooling degree days 123 51  
Year to date cooling degree days 209 119  
Since 1 June cooling degree days 123 51  
Growing Degree Days 23 (Base 50)    
Moisture  
Dew Point 20 °F    
Average Humidity 15    
Maximum Humidity 25    
Minimum Humidity 5    
Precipitation  
Precipitation T in 0.01 in 0.17 in (1976)
Month to date precipitation T 0.08  
Year to date precipitation 0.47 2.96  
Snow  
Snow 0.00 in 0.00 in - ()
Month to date snowfall 0.0 0.0  
Since 1 June snowfall 0.0 0.0  
Since 1 July snowfall 2.8 6.8  
Snow Depth 0.00 in    
Sea Level Pressure  
Sea Level Pressure 29.69 in    
Wind  
Wind Speed 12 mph (South)    
Max Wind Speed 28 mph    
Max Gust Speed 39 mph    
Visibility 10 miles    
Events Rain    
T = Trace of Precipitation, MM = Missing Value Source: NWS Daily Summary

Daily Weather History Graph

Daily Weather History Graph

Search for Another Location

Airport:

Trip Planner

Search our weather history database for the weather conditions in past years. The results will help you decide how hot, cold, wet, or windy it might be!

Date:

Astronomy

Jun. 10, 2013 Rise Set
Actual Time 5:32 AM PDT 8:13 PM PDT
Civil Twilight 5:01 AM PDT 8:44 PM PDT
Nautical Twilight 4:22 AM PDT 9:23 PM PDT
Astronomical Twilight 3:39 AM PDT 10:06 PM PDT
Moon 7:23 AM PDT (6/10) 9:46 PM PDT (6/10)
Length of Visible Light 15h 43m
Length of Day
14h 41m
Waxing Crescent, 4% of the Moon is Illuminated
Jun 10
Waxing Crescent
Jun 16
First Quarter
Jun 23
Full
Jun 29
Last Quarter
Jul 8
New

Hourly Weather History & Observations

Time (PDT) Temp. Dew Point Humidity Pressure Visibility Wind Dir Wind Speed Gust Speed Precip Events Conditions
12:56 AM 77.0 °F 7.0 °F 7% 29.67 in 10.0 mi SE 19.6 mph 25.3 mph N/A   Clear
1:56 AM 75.9 °F -2.9 °F 4% 29.67 in 10.0 mi SE 17.3 mph 26.5 mph N/A   Clear
2:56 AM 69.1 °F 1.9 °F 7% 29.67 in 10.0 mi South 9.2 mph - N/A   Clear
3:56 AM 70.0 °F 1.9 °F 7% 29.68 in 10.0 mi SSE 6.9 mph - N/A   Clear
4:56 AM 64.9 °F 5.0 °F 9% 29.69 in 10.0 mi NW 4.6 mph - N/A   Clear
5:56 AM 57.9 °F 10.9 °F 16% 29.71 in 10.0 mi NW 3.5 mph - N/A   Clear
6:56 AM 61.0 °F 19.0 °F 20% 29.73 in 10.0 mi NW 5.8 mph - N/A   Clear
7:56 AM 71.1 °F 14.0 °F 11% 29.72 in 10.0 mi Calm Calm - N/A   Clear
8:56 AM 79.0 °F 14.0 °F 9% 29.69 in 10.0 mi SSE 17.3 mph 25.3 mph N/A   Clear
9:56 AM 82.0 °F 14.0 °F 8% 29.68 in 10.0 mi SSE 23.0 mph 32.2 mph N/A   Clear
10:56 AM 84.0 °F 14.0 °F 7% 29.67 in 10.0 mi SSE 21.9 mph 29.9 mph N/A   Clear
11:56 AM 87.1 °F 10.0 °F 6% 29.64 in 10.0 mi SSE 21.9 mph 29.9 mph N/A   Clear
12:56 PM 87.1 °F 6.1 °F 5% 29.62 in 10.0 mi SSE 18.4 mph 31.1 mph N/A   Clear
1:56 PM 89.1 °F 9.0 °F 5% 29.61 in 10.0 mi South 21.9 mph 32.2 mph N/A   Clear
2:56 PM 84.9 °F 21.9 °F 10% 29.62 in 10.0 mi SSE 21.9 mph 27.6 mph N/A   Clear
3:56 PM 84.0 °F 28.0 °F 13% 29.64 in 10.0 mi SE 13.8 mph 23.0 mph N/A   Clear
4:56 PM 84.0 °F 25.0 °F 12% 29.64 in 10.0 mi Calm Calm - N/A   Clear
5:56 PM 86.0 °F 26.1 °F 11% 29.66 in 10.0 mi SW 13.8 mph 21.9 mph N/A   Scattered Clouds
6:56 PM 80.1 °F 33.1 °F 18% 29.68 in 10.0 mi NW 12.7 mph - N/A   Clear
7:56 PM 78.1 °F 34.0 °F 20% 29.69 in 10.0 mi West 8.1 mph - N/A   Clear
8:56 PM 75.0 °F 37.9 °F 26% 29.72 in 10.0 mi North 16.1 mph 24.2 mph N/A   Clear
9:56 PM 73.0 °F 43.0 °F 34% 29.76 in 10.0 mi NNE 13.8 mph 23.0 mph 0.00 in Rain Light Rain
10:56 PM 72.0 °F 44.1 °F 37% 29.78 in 10.0 mi NNE 8.1 mph - 0.00 in Rain Light Rain
11:56 PM 72.0 °F 42.1 °F 34% 29.78 in 10.0 mi WNW 9.2 mph - 0.00 in   Scattered Clouds